STARLINK-2473 (48131 NORAD) Tracking and Keplerian Element Data

This shows tracking and keplerian element data for the satellite.

Feedback or suggestion? Click here.




ElementValue
Catalog48131
NameSTARLINK-2473
Epoch Orbit198
Epoch Day173.91668981
Epoch Year2021
RAAN321.8172
Inclination53.0457
Eccentricity0.0001107
Argument of Perigee65.3424
Mean Anonmoly253.2707
Mean Motion15.6193451
Decay Rate-0.01101962
L11 48131U 21027AR 21173.91668981 -.01101962 00000-0 -13691-1 0 9994
L22 48131 53.0457 321.8172 0001107 65.3424 253.2707 15.61934510 1989

Live tracking and technical data element details for STARLINK-2473 (NORAD 48131). STARLINK-2473 can be tracked NOW for your location showing map with azimuth and elevation plus other details from your city location.

Track the satellite on the map from your city or location and see movement details for azimuth, elevation, latitude, longitude, range, height, and movement on the map or in text.







IsCatalogInMostPopularTable: catalog: 48131, numindb: 37
Update: records affected: 1



GetName: 48131 STARLINK-2473

Hit Count: updated at: Thu, 24 Jun 2021 03:40:17 GMT